sat.trackr.live / text

‹ back to catalog

STARLINK-4035

NORAD 52690 · 2022-053AL

PAYLOAD ACTIVE UNKNOWN

§ Identity

Operator
Country
US
Launch date
2022-05-18
Launch site
AFETR
Launch vehicle
Mass (kg)
RCS (m²)

Purposes: comms

External: N2YO · Heavens-Above · Gunter

§ Orbital elements

Epoch: 2026-09-20T05:05:25.061568Z

Period
94.33 min
Inclination
53.1594°
Eccentricity
0.0001416
Mean motion
15.26513369 rev/d
Perigee alt
485.3 km
Apogee alt
487.2 km
Semi-major
6,864.4 km
B*
9.9894e-6
RAAN
345.3112°
Arg perigee
82.7847°
Mean anomaly
277.3313°
Rev number
24,055

§ Raw data

STARLINK-40351 52690U 22053AL  26263.21209562 -.00000081  00000+0  99894-5 0  99932 52690  53.1594 345.3112 0001416  82.7847 277.3313 15.26513369240551

JSON: /api/v1/satellites/52690 · /tle

For live sub-satellite position, see the globe view (requires WebGL).

§ Visibility from observer

Set your observer location to see the next 7 days of passes ≥ 10°. The values pass through the URL so the page stays shareable.

No JS? Fill the form by hand. The geolocation button needs JavaScript.